Location: Lane
(33.5226°N, 79.8788°W)
Time: 16:33:02
(UTC+00:00)

Transit 2A - Pass Details

Date: 02 October 2022
Orbit: 598 x 959 km, 66.7° (Epoch: 06 December)

Event Time Altitude Azimuth Distance (km) Brightness Sun altitude
Rises 04:23:52 0° 219° (SW) 2,979 - -58.2°
Reaches altitude 10° 04:26:17 10° 225° (SW) 2,026 - -58.4°
Maximum altitude 04:30:38 46° 299° (WNW) 831 - -58.7°
Drops below altitude 10° 04:34:48 10° 13° (NNE) 1,944 - -59.0°
Sets 04:37:06 0° 20° (NNE) 2,843 - -59.1°
